#timestamp,LO_Frequency,Hit,StdDev 
1575748815.6,286046998.3,N
1575748835.5,286046999.5,N
1575748855.3,286046999.2,N
1575748875.1,286046999.2,N
1575748895.9,286046999.1,N
1575748915.7,286046999.6,N
1575748935.5,286046997.7,N
1575748955.4,286046999.3,N
1575748975.2,286047000.6,N
1575748995.1,286047001.5,N
1575748996.0,286047001.5,N
1575749015.8,286047006.0,N
1575749035.6,286047001.3,N
1575749055.5,286047004.3,N
1575749075.3,286047002.5,N
1575749095.2,286047000.4,N
1575749115.9,286046998.3,N
1575749135.7,286046996.6,N
1575749155.6,286046996.8,N
1575749175.4,286046994.9,N
1575749195.2,286046995.0,N
1575749215.1,286046997.0,N
1575749216.0,286046997.0,N
1575749235.8,286046997.2,N
1575749255.7,286046995.1,N
1575749275.5,286046995.2,N
1575749295.3,286046995.2,N
1575749315.2,286046999.1,N
1575749335.9,286046996.6,N
1575749355.7,286046999.5,N
1575749405.6,286046998.9,E
1575749415.5,286046996.8,N
1575749435.4,286046997.4,P
1575749455.2,286046995.6,P
1575749475.0,286046993.9,Y
1575749475.9,286046993.9,P
1575749495.8,286046997.4,N
1575749515.6,286046999.2,N
1575749535.5,286047001.0,N
1575749555.3,286046999.2,N
1575749575.1,286046996.5,N
1575749595.9,286046997.0,N
1575749615.7,286046998.6,N
1575749635.5,286046998.9,N
1575749655.4,286046996.7,N
1575749675.2,286046998.9,N
1575749695.1,286046999.1,N
1575749696.0,286046999.1,N
1575749715.8,286046999.2,N
1575749735.6,286046996.9,N
1575749755.5,286046996.8,N
1575749775.3,286046997.1,N
1575749795.1,286046999.2,N
1575749815.9,286046998.9,N
1575749835.7,286046998.5,N
1575749855.6,286046998.5,N
1575749875.4,286046999.4,N
1575749895.2,286047001.1,N
1575749915.1,286047000.1,N
1575749916.0,286047000.1,N
1575749935.8,286046998.6,N
1575749955.7,286047000.2,N
1575749975.5,286046996.6,N
1575749995.3,286046994.9,Y
1575750015.2,286046997.6,P
1575750035.0,286046995.3,P
1575750035.9,286046995.3,P
1575750055.8,286046995.5,Y
1575750075.6,286046998.3,P
1575750095.4,286046996.6,P
1575750115.3,286046999.1,N
1575750165.1,286046998.2,E
1575750175.0,286047000.4,N
1575750175.9,286047000.4,P
1575750195.8,286047002.7,P
1575750215.6,286047000.5,N
1575750235.4,286046999.9,N
1575750255.3,286047002.2,N
1575750275.1,286047001.3,N
1575750295.9,286047002.5,N
1575750315.7,286047003.7,Y
1575750335.5,286047001.9,P
1575750355.4,286047002.5,P
1575750375.2,286047001.9,P
1575750395.1,286047002.8,Y
1575750396.0,286047002.8,P
1575750415.8,286046999.7,N
1575750435.6,286047001.9,N
1575750455.5,286047002.4,N
1575750475.3,286047001.9,N
1575750495.2,286047002.5,N
1575750515.9,286047000.1,N
1575750535.7,286047001.3,N
1575750555.6,286047001.9,N
1575750575.4,286047003.9,Y
1575750595.2,286047001.6,P
1575750615.1,286046999.8,P
1575750616.0,286046999.8,N
1575750635.8,286046998.7,N
1575750655.7,286046998.5,N
1575750675.5,286046999.2,N
1575750695.3,286046996.6,N
1575750715.2,286046996.9,N
1575750735.0,286046998.3,N
1575750735.9,286046998.3,N
1575750755.7,286046998.9,N
1575750775.6,286046998.3,N
1575750795.4,286046998.5,N
1575750815.3,286046999.0,N
1575750835.1,286046998.3,N
1575750836.0,286046998.3,N
1575750855.8,286046998.4,N
1575750875.7,286046998.4,N
1575750895.5,286046998.5,N
1575750915.3,286046998.3,N
1575750935.2,286047001.1,N
1575750955.0,286046999.8,N
1575750955.9,286046999.8,N
1575750975.8,286047000.9,N
1575750995.6,286047002.5,N
1575751015.4,286047002.5,N
1575751035.3,286047004.2,N
1575751055.1,286047001.9,N
1575751075.8,286046998.5,N
1575751095.7,286047000.7,N
1575751115.5,286046998.1,N
1575751135.4,286047000.1,N
1575751155.2,286047000.7,N
1575751175.0,286047000.7,N
1575751175.9,286047000.7,N
1575751195.8,286047001.6,N
1575751215.6,286047000.3,N
1575751235.4,286046998.1,N
1575751255.3,286046998.6,N
1575751275.1,286047000.2,N
1575751295.9,286047002.5,N
1575751315.7,286047000.2,N
1575751335.5,286046998.3,N
1575751355.4,286046998.6,N
1575751375.2,286047001.2,N
1575751395.0,286046998.1,N
1575751395.9,286046998.1,N
1575751415.8,286046998.6,N
1575751435.6,286046998.6,N
1575751455.5,286046999.9,N
1575751475.3,286047002.8,N
1575751495.1,286047000.8,N
1575751515.9,286046998.5,N
1575751535.7,286047000.4,N
1575751555.5,286047000.1,N
1575751575.4,286047003.0,N
1575751595.2,286047005.6,Y
1575751615.1,286047004.2,P
1575751616.0,286047004.2,N
1575751635.8,286047001.1,N
1575751655.6,286046999.0,N
1575751675.5,286046999.3,N
1575751695.3,286046998.5,N
1575751715.1,286047000.3,N
1575751735.9,286047000.3,N
1575751755.7,286047002.7,N
1575751775.6,286047002.6,N
1575751795.4,286047000.1,N
1575751815.2,286046998.3,N
1575751835.1,286047004.0,N
1575751836.0,286047004.0,N
1575751855.8,286047001.8,N
1575751875.6,286047002.3,N
1575751895.5,286047001.6,N
1575751915.3,286047002.1,N
1575751935.2,286047002.1,N
1575751955.9,286047002.8,N
1575751975.7,286046998.6,N
1575751995.6,286046999.9,N
1575752015.4,286047002.4,N
1575752035.2,286047001.0,N
1575752055.1,286047002.7,N
1575752056.0,286047002.7,N
1575752075.8,286047000.3,N
1575752095.6,286047000.8,N
1575752115.5,286047000.3,N
1575752135.3,286047000.7,N
1575752155.2,286046998.3,N
1575752175.9,286046998.4,N
1575752195.7,286047000.9,N
1575752215.6,286046998.4,N
1575752235.4,286047001.0,N
1575752255.2,286047000.4,N
1575752275.1,286047001.1,N
1575752276.0,286047001.1,N
1575752295.8,286047002.4,N
1575752315.7,286047001.5,N
1575752335.5,286047000.6,N
1575752355.3,286047000.4,N
1575752375.2,286047001.0,N
1575752395.0,286047000.5,N
1575752395.9,286047000.5,N
